RH
61 59 57 53 51 52 53 55 58 58 57 59 66 68 63 59 68 72 62 62 72 69 62 66 67 63 60 58 55 53 48 46 45 46 48 48 48 48 49 51 52 53 53 52 52 52 50 49 48 48 47 46 45 45 45 43 43 43 43 44 45 45 45 46 46 44 39 42 51 63 78 89 87 83 86 89 82 71 69 76 79 80 82 83 81 79 75
65 60 57 53 50 51 53 52 53 56 57 58 61 61 56 53 57 58 57 66 72 64 62 65 63 57 56 54 51 49 47 48 49 50 53 52 51 52 53 55 56 56 55 54 52 52 52 50 50 50 49 47 45 45 44 43 42 42 42 43 44 45 46 45 45 46 44 41 39 45 63 77 77 76 81 89 91 90 91 91 88 82 79 80 84 85 79
68 60 59 55 53 58 57 50 51 55 57 57 55 55 56 55 55 55 58 65 65 57 54 58 56 52 52 51 50 49 49 51 52 54 56 55 55 57 58 60 60 58 57 55 53 53 54 53 52 51 51 49 45 43 43 44 43 41 42 43 44 44 45 45 45 45 45 44 41 38 43 55 66 74 77 80 88 96 99 99 96 92 86 81 83 87 85
68 59 59 58 59 68 65 53 52 55 58 60 55 51 58 63 64 63 62 65 66 56 51 53 53 51 51 51 51 50 50 53 56 59 59 58 59 61 63 65 64 61 59 59 58 57 56 56 55 53 52 50 45 42 43 44 44 43 42 43 43 44 44 44 45 45 44 44 44 40 36 40 56 73 79 83 89 95 98 96 94 92 91 87 85 88 89
68 57 56 60 66 75 68 53 50 52 53 55 53 52 56 59 62 64 61 59 57 52 52 57 58 55 55 53 51 50 52 56 60 61 61 62 63 64 66 67 66 64 62 61 61 61 59 59 58 56 55 54 51 47 44 44 44 43 41 41 42 43 44 44 44 44 44 44 44 44 40 36 44 59 68 73 78 83 86 88 90 90 89 88 85 84 87
66 59 57 62 67 67 57 43 39 42 45 47 50 54 55 52 52 51 46 43 45 48 54 61 62 59 57 56 52 49 52 60 64 63 64 65 65 64 65 67 66 65 64 64 64 64 63 62 61 60 59 58 56 51 45 43 43 42 41 41 41 42 42 43 43 44 45 46 44 44 44 39 40 48 52 53 56 63 72 81 89 91 89 89 88 83 85
57 58 62 70 65 50 41 36 33 33 34 36 43 49 47 44 42 39 35 37 42 46 51 56 59 58 56 55 51 48 53 61 65 67 68 66 64 64 64 65 66 65 65 66 67 66 65 64 63 61 60 59 59 55 49 47 47 45 44 44 44 44 42 41 42 43 44 46 45 45 45 42 40 45 51 51 48 51 61 73 83 89 88 86 86 84 85
49 50 55 64 56 38 31 34 34 33 32 34 40 47 45 37 34 35 33 33 37 43 49 53 55 55 54 52 48 48 55 60 63 67 69 65 63 62 61 63 65 64 64 66 67 68 66 65 64 62 61 61 59 57 54 52 50 47 46 46 45 45 44 42 42 41 41 43 44 45 46 45 42 41 47 54 50 47 56 66 73 84 88 85 83 82 79
40 40 45 54 51 43 41 41 38 36 38 39 41 47 46 35 32 35 33 34 41 46 50 54 54 54 55 52 46 47 54 59 60 64 64 61 60 59 59 61 63 63 63 64 66 67 65 64 64 63 63 63 61 60 57 55 52 49 47 47 46 45 45 44 41 39 38 39 41 44 45 46 46 42 42 50 52 50 61 72 75 79 85 86 86 81 77
29 34 47 57 58 52 47 44 38 33 36 40 41 46 48 40 36 36 34 42 52 52 54 57 54 53 58 56 47 48 56 60 60 61 60 57 56 57 57 58 58 59 62 63 64 65 64 65 66 66 66 65 64 63 62 58 56 53 51 50 49 48 47 46 44 40 37 35 36 41 45 44 46 45 41 44 49 53 64 77 78 73 73 80 86 83 78
23 28 38 46 53 52 44 40 35 30 33 38 43 57 61 47 37 35 36 47 58 55 55 55 50 53 63 62 52 52 59 61 59 59 58 55 55 55 54 55 56 59 61 62 63 65 65 66 68 68 68 68 66 65 63 61 59 57 55 54 54 54 53 53 51 48 45 41 36 37 43 44 45 47 45 41 45 55 68 75 73 66 64 71 82 85 83
22 24 31 39 46 45 41 38 32 27 31 36 49 71 73 49 36 36 37 44 51 51 51 50 47 52 62 62 58 57 59 58 56 57 57 55 55 54 53 54 56 58 61 62 63 66 67 68 70 69 68 68 68 67 65 63 61 61 60 60 61 62 61 61 59 55 52 51 47 42 43 45 45 46 48 43 40 51 72 80 72 65 64 69 78 85 86
22 23 32 44 48 42 38 36 30 27 34 45 59 70 61 42 36 37 35 39 43 45 48 49 49 51 54 56 58 57 54 53 54 54 55 53 52 52 53 55 56 59 63 64 64 67 68 69 70 70 69 68 69 68 67 66 65 65 66 67 69 69 68 65 63 59 54 53 53 49 45 44 45 46 48 48 41 43 64 83 81 73 72 75 80 84 83
27 25 29 42 53 50 41 35 31 29 39 54 59 52 41 36 37 36 35 38 41 43 46 47 49 51 50 51 53 51 50 52 52 52 52 51 50 51 53 55 56 60 65 65 65 67 69 70 70 70 69 70 70 71 71 70 70 69 71 73 74 75 75 70 63 57 54 52 53 55 51 46 47 47 46 49 46 40 47 70 83 82 79 80 84 85 82
31 30 28 38 51 52 42 36 35 34 38 46 46 38 35 36 35 34 37 38 39 42 45 45 47 47 46 47 48 47 48 49 48 48 49 47 47 49 52 54 57 61 65 66 67 69 69 69 70 70 69 70 71 73 74 73 72 73 75 77 78 78 81 79 67 57 55 54 53 55 55 50 47 48 47 48 50 44 39 52 76 87 83 82 86 87 86
32 36 34 36 41 41 36 36 37 37 37 39 39 39 39 36 33 34 36 36 37 40 42 43 43 43 43 44 43 44 45 45 44 44 44 44 46 48 51 56 58 59 63 67 68 67 67 68 70 70 70 71 73 75 75 74 73 75 78 80 82 84 86 83 71 60 57 59 58 56 55 52 48 48 49 47 49 48 41 44 68 87 87 84 86 88 88
35 40 38 33 31 31 31 33 35 37 38 38 38 40 39 37 35 35 35 37 39 38 39 41 41 40 41 41 40 41 44 42 41 42 41 41 45 46 49 56 58 57 60 67 66 63 64 68 70 70 70 73 76 77 77 76 75 76 79 82 86 89 89 82 69 60 57 59 59 56 54 53 51 48 49 49 48 49 44 42 58 79 85 85 87 87 87
37 39 34 30 31 32 32 32 33 36 38 37 37 39 39 37 35 35 36 39 39 37 38 39 40 40 40 39 39 40 41 41 41 41 40 40 43 45 48 55 58 56 57 61 60 58 61 65 68 69 70 73 76 79 80 79 78 78 80 84 88 90 89 80 67 61 60 58 56 54 52 53 52 49 49 49 47 48 46 41 49 69 79 82 85 86 85
41 42 37 32 32 34 33 31 32 35 37 36 36 38 39 36 34 35 37 38 37 36 36 37 38 39 38 39 41 40 39 40 40 39 39 40 42 44 48 53 58 57 55 55 55 57 60 62 64 67 69 71 74 79 82 81 81 81 82 86 90 91 90 82 70 65 66 63 59 57 53 51 51 50 50 50 48 48 47 40 44 63 76 78 82 85 84
41 40 36 31 30 30 30 30 31 32 34 34 34 36 37 36 35 36 36 37 37 36 35 35 37 37 36 39 41 40 38 40 40 39 39 40 41 44 47 51 55 57 56 55 55 58 58 59 62 64 66 69 73 78 82 84 84 84 84 88 93 94 92 85 77 74 75 72 67 64 60 55 53 50 50 50 46 45 46 41 45 62 73 75 79 82 82
38 36 33 31 30 30 30 31 31 30 31 33 34 36 37 35 35 36 35 36 37 36 35 35 36 37 37 38 38 39 40 40 40 40 40 39 40 42 45 49 52 55 56 55 55 57 57 57 60 62 64 68 71 73 80 85 84 85 87 90 95 96 93 87 79 77 80 81 78 74 67 60 54 50 51 53 49 45 43 40 45 61 69 71 76 80 81
42 42 40 37 38 39 36 33 32 32 32 35 36 37 38 37 37 36 36 37 37 35 34 34 35 37 38 38 38 40 40 40 40 39 39 40 40 40 42 47 50 52 54 54 54 55 55 55 58 61 63 67 68 70 76 83 85 86 88 91 94 96 95 92 84 80 82 84 83 81 76 70 64 58 54 53 50 46 42 39 46 62 68 65 69 76 78
42 42 39 37 40 41 37 34 34 33 32 35 38 38 38 38 37 36 36 39 40 37 35 34 35 37 37 38 39 39 39 39 39 39 39 41 40 39 41 46 49 50 52 53 53 54 54 54 56 60 63 64 64 66 72 80 85 86 87 91 95 96 95 95 91 88 88 84 80 83 84 79 74 69 64 60 54 47 45 43 48 63 73 67 64 70 73
37 36 35 36 38 37 34 33 35 34 32 33 36 36 36 38 38 37 38 40 40 39 38 36 36 36 36 36 38 39 39 38 38 40 41 40 40 40 41 43 46 48 50 50 51 52 53 52 54 59 61 60 61 66 73 80 85 85 85 90 96 97 97 96 92 90 92 87 81 82 82 79 77 75 72 70 63 52 50 51 52 61 75 74 65 64 66
34 33 33 34 35 34 32 30 29 29 30 32 35 36 36 37 38 38 38 40 41 41 40 39 38 38 38 37 36 39 41 40 40 41 41 39 39 41 41 42 45 46 46 48 49 50 51 51 53 57 59 61 66 71 75 80 83 83 84 88 93 96 98 99 94 92 94 91 82 75 74 77 80 80 80 81 78 70 69 74 75 78 87 88 78 73 72
30 30 30 31 31 31 32 31 31 30 30 31 35 37 36 37 40 40 39 40 42 41 40 40 39 40 41 39 37 37 39 41 41 41 40 38 39 41 42 43 44 45 45 45 47 49 50 49 52 55 58 63 70 74 75 80 83 83 82 84 89 92 94 96 97 96 95 94 88 81 80 83 86 89 90 90 88 85 84 86 89 94 99 99 93 89 88
26 27 30 33 34 32 32 34 34 32 31 31 34 35 33 35 40 42 39 39 40 40 40 40 40 40 42 41 38 37 37 39 40 41 40 38 38 41 43 44 44 45 45 44 45 48 48 47 49 54 57 61 68 71 74 79 83 82 81 83 86 89 90 91 94 94 92 91 92 93 94 92 90 92 91 83 80 85 88 86 89 95 95 91 88 86 86
24 25 28 33 34 32 31 31 31 30 30 30 31 31 30 32 36 38 38 38 39 40 40 40 41 43 43 42 39 37 37 39 39 40 40 39 38 40 42 43 44 45 45 44 45 47 47 46 48 52 55 59 63 66 70 77 81 81 81 82 84 87 89 90 91 91 90 89 91 93 94 92 92 93 90 83 85 92 92 88 89 92 88 84 82 79 78
24 25 27 29 30 31 30 30 30 29 29 29 30 30 31 32 34 36 38 38 39 40 41 40 42 44 45 43 40 38 37 38 38 39 40 38 37 38 41 43 46 47 46 46 47 48 48 48 51 54 56 58 61 66 70 76 80 81 81 81 84 87 89 89 88 88 89 89 88 88 88 89 91 92 90 88 92 94 89 87 91 93 91 91 89 84 84
24 26 27 28 29 31 32 32 32 31 29 29 30 30 30 32 34 36 37 37 38 41 41 40 41 45 45 44 41 38 36 37 36 37 38 37 36 38 41 43 45 45 44 46 49 50 49 50 53 56 57 57 60 66 70 73 79 82 82 82 84 87 89 90 88 87 88 89 88 87 86 85 88 90 89 88 90 88 84 84 89 92 95 98 96 93 97
25 29 30 30 31 33 35 34 33 33 30 30 31 32 31 33 34 35 36 37 39 41 41 39 41 44 45 43 40 37 35 34 35 36 37 36 35 38 39 38 39 38 36 40 47 49 47 49 55 57 58 58 60 65 69 73 77 83 85 84 84 86 89 89 88 87 88 89 89 88 88 86 86 87 87 87 87 86 85 87 90 94 96 99 99 98 99
26 28 30 31 31 33 35 35 35 34 31 29 31 32 32 33 34 35 36 38 40 41 40 40 41 43 43 42 38 34 33 33 33 35 36 34 34 36 35 32 33 33 29 33 42 44 40 45 54 59 58 59 59 61 66 71 74 79 85 87 86 87 88 89 90 89 88 89 89 89 89 89 88 86 87 86 85 85 86 87 91 94 95 97 100 100 96
26 27 29 31 32 33 35 36 36 35 32 29 29 30 30 31 33 34 35 37 39 40 41 41 42 43 43 41 36 31 30 31 32 34 35 34 32 33 32 29 28 28 26 27 35 41 37 37 47 56 57 57 58 59 62 66 69 75 82 87 89 89 89 89 89 90 89 89 90 90 89 90 90 88 88 88 87 87 87 88 89 91 91 94 97 98 95
25 27 29 30 31 33 35 35 35 34 32 30 30 30 30 31 32 33 34 37 40 41 42 42 43 43 42 39 34 30 29 31 33 33 33 32 30 31 32 29 27 26 24 23 31 41 39 30 34 49 56 56 57 58 57 60 65 72 78 84 87 90 91 90 90 90 90 90 90 90 90 91 91 91 91 91 90 91 91 90 91 92 92 93 95 96 96
24 25 26 27 29 31 32 33 33 33 32 32 32 31 32 32 33 35 39 42 43 43 42 41 42 43 41 37 32 30 29 31 32 32 31 31 31 30 31 30 27 26 24 21 27 40 40 27 28 46 57 55 56 57 54 55 62 69 74 79 82 86 90 91 91 91 91 90 90 90 91 91 92 92 92 91 92 93 93 93 93 93 93 94 95 96 97
24 25 26 27 28 30 30 31 32 32 31 31 32 32 33 34 35 37 40 42 42 42 42 42 43 43 40 35 31 29 29 29 30 30 30 30 30 30 30 31 31 29 25 21 26 39 41 29 29 46 57 56 56 58 53 52 58 66 70 74 77 80 84 88 90 92 93 91 90 90 90 91 92 92 92 92 92 93 94 95 96 97 98 98 97 97 98
24 25 27 29 30 31 30 30 30 29 28 30 31 32 34 36 37 38 40 40 40 41 42 44 45 43 39 34 29 28 29 29 29 29 29 30 30 29 29 31 33 31 27 24 30 41 43 36 35 45 54 57 60 60 54 50 55 60 64 69 74 78 80 82 86 90 93 93 92 92 92 91 91 91 92 94 94 94 95 96 97 98 100 100 100 99 100
25 26 28 30 31 32 31 30 29 28 28 29 30 31 33 35 37 38 39 39 40 41 42 44 45 45 40 33 27 27 30 31 30 29 28 28 29 29 29 32 36 34 29 30 37 43 43 40 39 44 50 57 62 61 54 49 52 56 59 64 71 76 77 77 79 82 87 91 95 95 95 95 95 94 94 95 96 97 98 98 98 99 100 100 100 100 100
29 28 29 29 31 32 31 30 30 28 27 27 28 29 31 34 35 37 39 39 40 43 44 44 46 45 39 31 27 29 31 30 29 29 28 28 29 27 27 32 38 36 29 29 37 43 42 38 38 44 51 55 57 57 53 50 50 53 55 59 65 71 74 75 75 75 77 81 87 92 95 98 98 98 98 97 98 99 100 99 99 100 100 100 100 100 100
32 32 31 30 31 32 31 31 30 28 27 27 28 28 30 32 34 36 38 39 42 45 46 47 47 43 34 27 27 30 32 31 30 30 29 29 31 29 26 29 37 37 28 25 32 40 39 34 36 47 54 49 43 46 52 52 50 50 51 53 59 66 71 72 73 73 71 72 75 80 85 90 93 96 98 99 99 100 100 100 100 100 100 100 100 100 100
32 33 32 31 31 31 31 31 30 29 28 29 29 29 30 32 34 37 38 41 44 46 46 47 47 41 32 26 25 26 28 30 31 31 30 31 34 33 28 28 34 36 29 25 30 36 35 32 36 46 50 42 36 42 51 53 49 48 48 49 53 60 66 69 70 70 69 69 70 71 72 75 79 84 88 92 96 98 99 99 100 100 100 100 100 100 100
32 33 32 32 32 31 31 31 31 30 30 30 30 29 30 31 33 36 38 40 43 45 44 43 40 34 30 29 27 24 25 29 31 31 30 30 31 30 28 29 34 35 31 30 33 34 33 34 36 38 39 39 41 46 51 51 48 49 49 49 49 53 60 65 67 67 66 67 68 69 69 69 70 71 74 77 82 87 90 93 95 96 97 97 97 97 98
31 32 32 33 32 31 31 32 32 31 31 31 30 30 30 30 32 34 36 38 41 41 41 39 34 29 28 31 30 28 27 30 31 29 26 25 28 31 31 32 35 34 30 31 35 35 36 38 35 28 26 34 43 48 50 49 48 48 50 50 48 48 52 59 63 64 64 65 66 67 68 67 68 69 70 71 72 75 77 79 83 86 89 90 90 92 94
27 29 29 30 31 32 32 33 33 32 33 32 30 30 31 30 31 32 33 35 37 38 39 38 34 28 25 26 26 26 25 25 26 25 22 23 30 37 38 34 33 32 31 32 35 37 40 42 37 26 21 27 39 47 48 46 44 45 48 50 49 47 48 53 58 61 62 62 64 66 66 65 66 69 70 71 72 73 72 73 74 76 79 81 82 84 86
25 26 26 28 30 31 31 32 32 33 33 32 31 31 30 29 30 30 30 31 34 37 39 38 34 27 23 23 25 25 25 24 24 25 25 26 30 36 38 35 34 35 35 36 38 39 41 43 41 32 22 23 36 49 50 44 42 44 46 47 48 47 47 49 53 56 58 59 60 62 63 63 65 68 71 71 71 71 70 71 71 72 73 74 74 75 76
26 26 26 27 28 28 29 30 32 33 33 33 33 32 31 30 30 31 31 31 32 34 35 34 30 26 24 24 25 26 27 27 26 26 27 27 27 30 33 34 34 36 37 38 40 41 41 42 44 38 26 24 39 53 52 45 43 44 44 44 46 45 45 47 50 52 54 56 57 59 60 61 62 66 69 70 69 68 68 67 66 66 67 68 68 69 70
29 28 28 28 28 28 28 30 31 31 34 36 36 35 33 32 31 30 31 31 31 31 31 30 29 26 24 24 25 26 26 27 26 27 27 26 25 27 30 31 32 35 38 39 40 40 38 41 48 45 30 25 39 52 52 48 47 47 45 45 46 43 43 46 48 48 50 54 55 56 59 60 61 63 66 66 66 66 66 65 64 64 64 64 64 65 66
31 31 31 31 30 29 29 31 31 32 34 35 35 34 34 34 32 31 30 30 31 31 30 29 28 27 25 24 25 25 25 25 26 27 28 27 27 29 33 33 33 35 38 38 37 38 39 44 52 50 36 29 39 49 50 49 51 50 47 47 47 44 43 46 47 46 48 51 53 55 58 60 61 63 64 64 64 64 64 64 64 63 63 63 64 64 66
32 33 33 32 33 32 32 33 34 33 33 32 31 32 34 35 34 32 30 29 29 30 29 28 28 27 26 25 25 25 25 26 26 26 28 29 29 31 34 36 36 36 38 38 40 45 47 49 53 51 40 36 42 49 48 48 52 53 50 49 49 48 46 45 45 46 47 47 49 53 56 59 61 63 63 63 64 64 63 62 63 63 62 63 64 64 66
32 33 33 34 34 34 34 34 35 34 34 33 33 34 34 35 35 34 32 30 29 29 29 28 28 27 26 26 26 25 25 26 26 27 28 29 28 29 33 36 37 37 37 38 41 47 49 50 51 50 45 41 44 49 50 50 50 50 51 52 52 50 48 46 45 45 46 46 47 50 53 56 58 60 60 60 61 62 61 60 60 61 62 63 64 64 65
33 34 35 35 36 36 36 36 36 36 37 36 35 35 35 36 37 37 36 33 30 29 28 29 29 28 27 27 26 26 25 26 27 27 28 29 29 29 31 33 36 38 38 38 40 43 45 48 52 54 50 44 43 47 52 53 50 48 51 54 54 51 49 48 46 44 46 47 47 48 51 54 55 54 55 56 57 57 57 57 57 58 60 62 63 64 64
36 36 37 37 37 37 37 37 36 36 36 37 36 36 37 38 38 39 38 36 34 32 30 29 28 29 28 28 27 26 25 25 26 27 27 28 30 31 30 32 35 38 39 40 41 42 43 48 54 56 52 45 41 43 50 55 53 51 52 56 54 49 48 49 47 44 45 47 47 47 49 51 51 51 53 55 54 53 54 55 55 56 58 60 61 62 63
Wind_Speed
7 6 6 5 6 7 8 9 10 10 10 10 10 9 8 7 4 4 7 9 6 6 10 11 11 13 12 13 13 13 13 13 13 14 15 16 17 17 17 16 16 16 15 14 15 17 18 19 19 19 18 19 19 19 19 18 17 16 15 15 16 17 18 19 21 22 23 23 24 25 26 27 30 34 35 32 32 36 40 44 47 41 34 31 32 35 37
5 4 4 4 5 7 9 10 10 10 9 9 8 8 7 7 7 7 8 7 5 5 8 9 9 10 10 10 11 12 13 13 14 15 15 16 17 17 18 18 17 16 16 15 16 17 18 19 20 19 19 18 18 18 19 18 18 17 17 17 17 18 19 19 20 22 23 25 26 26 25 26 28 32 34 33 33 34 37 41 43 41 38 34 30 31 34
4 4 5 4 2 5 8 9 10 9 9 8 7 7 7 6 6 8 8 6 5 5 7 8 8 9 9 10 11 12 12 13 15 15 15 16 17 17 17 18 17 17 17 17 17 18 18 19 19 19 19 19 18 18 18 19 19 18 17 17 17 18 20 20 21 22 24 24 25 26 26 26 28 29 31 34 37 36 34 33 33 32 31 32 32 31 32
3 5 7 6 3 3 5 7 10 9 8 7 7 6 6 6 5 7 7 6 5 6 8 9 9 10 11 12 13 12 11 12 14 15 16 16 17 17 17 16 17 18 17 17 18 19 20 21 21 20 20 20 20 18 17 19 21 20 20 20 20 20 20 20 22 23 24 25 25 26 26 25 28 31 32 35 38 37 32 28 27 25 24 26 29 31 33
2 5 8 7 5 3 3 5 7 7 6 6 6 5 6 6 3 4 5 5 5 6 8 10 10 11 12 12 12 11 11 12 13 14 16 17 17 17 16 15 17 18 17 18 20 22 22 22 22 21 20 21 21 20 19 19 21 22 22 21 22 23 23 23 23 23 24 25 25 27 27 26 25 29 33 35 35 34 32 28 26 25 26 28 30 32 34
2 4 7 6 3 1 3 4 4 5 4 4 4 5 5 4 1 3 4 5 5 6 7 9 10 11 12 12 12 11 9 10 11 15 16 16 17 16 15 15 16 17 19 21 23 24 24 23 23 22 20 21 22 22 21 20 21 22 22 22 22 23 24 24 24 25 25 26 27 27 28 28 27 26 31 34 33 32 32 29 26 25 26 27 29 30 33
1 4 6 4 1 3 4 4 4 3 2 3 3 5 4 3 1 4 6 5 5 5 6 7 9 10 11 12 12 8 8 9 11 14 15 16 17 16 14 14 14 17 21 24 24 24 25 24 23 22 20 20 22 23 22 22 22 22 22 22 23 24 25 25 25 26 27 28 28 28 28 28 28 28 29 32 34 33 32 31 28 28 28 28 29 30 32
2 3 3 1 3 4 4 5 5 4 4 3 2 2 3 3 5 7 7 5 5 6 7 7 8 9 11 11 9 4 9 11 12 13 14 16 17 16 15 14 15 18 22 24 24 25 25 24 23 22 21 20 21 21 21 22 23 23 23 23 24 24 25 26 27 28 28 28 28 29 29 28 29 30 29 31 34 34 33 33 33 30 29 29 31 31 32
2 0 3 4 5 4 3 5 4 4 4 4 3 2 3 3 7 8 8 7 7 7 7 7 8 9 10 9 5 5 11 13 14 14 15 16 17 18 19 20 20 22 25 26 26 26 25 24 24 23 22 22 22 22 22 22 22 24 24 25 25 26 26 28 30 30 29 28 27 27 28 29 30 31 31 30 33 36 34 33 33 32 31 31 33 34 34
3 2 2 4 4 2 3 4 3 3 3 5 3 2 2 3 8 9 10 8 8 7 7 7 9 8 7 6 4 7 13 14 15 15 15 17 20 21 23 25 24 26 28 29 28 27 26 25 23 22 23 23 23 23 23 22 23 24 24 25 27 28 29 30 31 32 32 32 30 28 29 31 31 32 33 31 32 36 37 34 33 36 37 36 36 38 40
2 4 3 0 2 1 3 4 3 3 2 7 2 2 1 3 7 8 8 7 6 7 8 8 8 7 6 6 6 10 14 14 14 14 15 18 22 24 25 26 26 27 30 31 29 27 26 26 24 23 24 24 23 23 23 22 23 23 24 26 28 29 32 33 34 35 35 35 34 32 32 32 32 33 34 33 32 34 38 38 37 38 40 39 38 37 38
1 2 3 2 3 3 3 3 0 2 3 2 2 3 1 3 6 6 8 6 5 7 9 8 7 6 6 6 7 11 13 13 14 14 15 17 21 24 26 26 25 26 29 31 31 28 25 26 26 25 25 23 22 23 23 23 24 25 26 27 29 31 33 34 36 37 38 38 37 33 31 31 33 34 34 34 34 32 36 42 42 40 40 40 37 34 33
1 2 1 3 4 2 3 3 1 2 5 1 3 2 1 3 5 6 7 7 7 8 8 7 6 6 7 8 9 11 12 13 14 15 17 19 21 23 25 26 25 24 25 28 30 27 24 25 26 26 26 24 23 23 24 24 25 26 28 30 31 32 34 35 36 37 38 40 40 37 34 32 33 35 34 34 36 33 33 41 44 41 39 38 37 36 38
4 4 2 3 4 1 5 4 1 2 2 1 0 1 2 4 5 6 6 7 7 7 7 7 6 7 9 9 9 11 12 12 12 14 16 19 20 22 24 25 25 23 22 26 29 26 24 26 26 26 26 25 24 24 24 24 26 28 29 30 31 33 36 37 38 36 37 40 41 40 38 33 32 35 36 34 36 36 33 34 39 40 38 37 37 38 40
3 4 3 2 1 2 2 4 1 2 2 2 2 2 3 4 5 5 5 5 6 6 7 7 8 9 9 9 10 11 11 11 12 13 15 16 18 21 23 24 26 23 21 24 28 26 25 27 27 27 27 25 24 24 25 26 29 30 29 29 31 34 36 38 38 36 36 38 39 39 39 36 31 32 34 34 34 36 36 32 33 38 39 38 36 35 35
3 4 3 3 2 4 3 3 2 3 3 3 2 3 3 4 4 4 4 5 5 6 7 7 9 9 9 9 10 10 9 11 12 12 13 15 17 19 21 23 25 24 20 21 25 26 27 27 27 26 26 26 25 26 28 29 30 29 28 28 30 32 35 37 36 34 34 34 36 38 38 36 32 30 32 35 34 34 37 34 30 33 36 37 34 31 31
3 4 4 4 4 4 3 2 2 3 1 1 2 3 3 3 4 4 4 5 6 7 8 8 8 9 9 10 11 10 9 10 11 13 14 16 18 18 19 21 24 25 21 18 22 26 28 27 26 25 25 26 26 27 30 31 31 30 29 28 30 31 33 35 33 31 31 31 32 33 33 32 31 30 31 34 34 33 35 35 31 30 33 35 32 29 30
2 1 1 1 2 2 1 0 1 2 1 1 2 4 4 3 4 4 4 5 6 7 8 8 8 9 10 11 11 11 11 10 11 12 14 17 19 19 18 19 23 26 24 21 23 29 30 29 28 28 27 26 26 28 31 32 30 30 30 29 29 32 33 32 30 28 28 28 28 28 29 29 31 31 30 33 35 33 33 35 33 29 30 33 33 30 29
2 1 3 2 1 2 3 2 3 4 4 3 1 3 4 4 4 4 4 5 6 6 7 8 8 9 11 11 10 11 12 11 11 12 14 16 18 18 18 19 22 25 24 24 26 28 29 29 30 30 29 27 27 30 32 32 31 31 31 29 29 32 33 29 27 25 25 26 27 26 27 28 30 32 32 33 35 32 31 33 32 28 28 29 30 29 28
4 3 5 4 3 4 4 3 3 4 5 4 2 1 5 5 4 3 4 5 6 6 7 8 9 9 11 11 11 12 12 10 10 11 14 17 17 17 18 19 20 22 22 24 25 26 26 29 30 31 30 29 30 33 34 33 33 31 31 30 30 32 34 28 25 23 23 25 27 28 29 29 30 32 32 34 36 34 32 34 31 27 28 27 28 30 30
5 5 3 4 4 4 5 5 4 3 2 1 1 2 5 6 4 3 4 5 6 6 8 8 9 10 11 11 12 12 11 9 10 12 16 19 18 18 19 19 20 21 21 21 23 24 25 28 29 30 31 31 33 34 34 35 34 31 31 31 30 31 33 27 22 22 22 23 24 26 28 29 31 32 31 32 34 33 34 38 36 30 30 29 29 33 34
2 2 2 2 3 3 1 3 4 3 1 2 1 3 5 6 5 5 5 6 7 7 8 9 9 9 10 11 13 12 10 10 13 15 18 20 19 19 19 18 20 22 21 21 22 22 24 27 29 29 30 32 35 37 36 35 34 31 31 31 29 29 30 26 21 20 20 21 22 23 25 27 29 31 31 34 39 38 36 38 37 34 36 35 34 36 37
4 2 2 2 2 4 1 3 4 3 2 3 3 4 5 5 5 6 6 7 7 7 8 10 10 9 10 12 13 12 11 13 15 17 18 19 19 19 19 19 20 21 21 21 21 21 23 26 27 28 29 32 36 38 36 35 34 31 30 30 27 27 26 24 24 24 20 20 21 21 23 25 25 24 25 30 38 41 39 37 36 32 36 38 38 39 39
5 3 2 1 2 5 3 3 5 4 3 3 4 5 4 3 4 5 6 6 7 7 7 9 11 11 12 13 13 12 13 15 17 18 19 19 19 19 19 19 20 20 20 21 21 21 24 26 26 27 28 31 37 38 35 34 34 32 30 29 27 27 27 25 28 30 25 22 23 22 22 23 21 20 21 24 28 32 33 32 33 32 33 37 38 41 43
4 3 3 2 4 5 5 4 5 4 3 3 4 5 4 4 5 6 6 6 7 8 7 7 10 12 13 14 14 13 14 16 18 19 19 18 18 19 19 20 21 20 19 20 21 22 24 25 26 26 27 30 35 37 35 34 34 32 30 29 28 29 30 30 31 32 28 22 20 20 19 18 17 17 18 16 15 16 15 13 16 16 12 13 19 30 38
4 4 4 5 5 5 5 5 5 4 4 5 5 5 6 5 4 4 6 7 7 8 8 8 9 11 13 14 14 13 14 15 17 18 19 17 17 18 18 19 21 22 21 21 21 22 24 25 25 27 28 28 31 34 35 34 34 32 30 29 28 30 34 34 31 29 27 23 17 15 17 16 14 16 13 7 6 7 4 5 7 7 13 18 12 3 7
5 4 4 6 6 5 5 4 3 4 4 4 5 6 7 6 7 7 7 9 8 8 9 9 10 11 12 14 15 15 13 14 15 16 18 17 16 17 19 20 21 23 21 20 21 23 24 25 24 27 28 27 28 33 35 35 34 32 31 30 30 31 36 37 33 29 30 30 25 18 16 13 9 11 11 4 4 6 3 1 1 5 11 17 19 21 22
6 5 5 6 6 5 3 4 5 5 5 6 6 6 7 6 6 7 8 8 7 8 9 9 10 11 11 13 15 15 14 14 15 15 17 17 16 17 18 19 21 22 21 20 22 23 24 25 25 26 28 29 29 32 33 33 33 32 31 31 31 31 35 37 33 30 31 33 32 25 15 9 7 2 6 7 3 4 5 4 4 10 13 10 11 15 19
6 5 4 4 5 5 5 6 7 7 6 7 8 8 8 7 7 7 7 7 7 7 8 9 9 10 11 12 14 14 14 14 14 14 16 17 17 17 17 18 19 21 20 20 22 23 23 24 25 26 28 29 29 31 31 31 31 31 30 31 31 32 37 39 33 29 30 31 32 31 24 19 20 18 11 9 8 8 10 10 7 10 15 14 11 12 13
5 5 4 3 4 4 5 7 8 8 7 7 7 8 8 8 8 8 7 7 7 6 8 9 8 9 11 12 13 14 14 14 14 15 16 16 16 16 17 17 17 17 17 18 20 21 22 23 23 25 28 28 28 29 30 28 29 29 29 28 29 33 39 40 32 27 28 29 30 32 29 26 28 30 25 20 16 14 15 17 14 14 19 20 20 18 14
6 5 5 4 5 5 7 7 7 7 7 7 7 8 8 8 9 9 8 7 6 6 8 9 8 8 10 12 13 15 15 14 14 15 15 14 14 15 15 16 16 15 16 17 18 19 21 22 22 24 28 28 26 28 29 26 26 27 28 27 28 32 38 40 34 29 28 28 28 30 30 27 27 28 27 25 23 21 21 20 19 19 22 25 26 24 19
7 7 7 6 6 7 7 7 7 7 7 7 8 7 7 8 9 9 7 6 5 6 8 8 8 9 10 12 13 14 14 13 14 14 13 13 14 14 13 15 15 15 16 17 17 17 19 21 21 24 30 29 25 26 29 27 24 25 26 26 27 29 33 37 36 32 30 29 28 28 28 26 25 25 25 25 24 22 21 20 20 21 23 24 25 27 28
8 7 7 7 7 8 8 7 7 8 9 8 8 7 7 7 7 7 7 6 6 6 7 7 8 9 11 12 14 14 13 13 13 12 11 13 14 13 12 14 15 16 17 17 16 17 18 19 21 26 30 28 23 24 29 30 25 22 23 25 26 28 30 33 33 32 30 30 29 28 27 26 25 24 24 24 22 22 22 22 21 21 22 22 23 28 32
9 7 5 4 4 6 7 7 6 7 8 8 8 9 8 8 8 8 7 6 6 7 7 6 8 9 11 13 14 13 11 10 9 9 11 13 13 12 12 12 14 16 17 16 15 16 16 19 24 29 29 24 21 22 29 32 27 21 20 23 25 27 28 29 30 30 29 29 29 28 27 27 27 26 24 24 23 23 24 23 22 22 22 21 22 26 31
9 7 6 4 3 3 4 5 6 7 7 8 8 9 9 9 10 8 4 2 4 8 9 8 8 9 11 13 13 11 10 10 8 8 11 13 12 12 11 10 12 15 17 15 15 16 17 20 25 28 25 22 19 21 27 31 27 21 19 21 23 25 27 28 28 27 27 27 27 27 27 28 28 28 27 25 24 24 24 24 23 22 21 20 20 23 28
9 7 5 4 4 4 4 5 7 8 8 8 8 8 9 9 10 9 5 4 7 9 9 8 8 9 11 13 11 10 11 10 7 8 11 12 12 12 11 9 11 14 15 15 16 17 17 21 25 25 22 20 20 21 26 30 28 21 18 20 21 22 24 26 26 25 26 26 26 26 27 27 27 28 28 26 25 24 24 24 24 23 23 22 22 23 25
9 7 3 3 5 6 7 7 8 8 7 7 7 8 9 9 10 10 10 10 10 9 7 7 8 9 12 13 11 11 11 8 6 8 11 10 11 12 10 7 10 12 12 14 17 17 17 22 26 23 19 19 20 22 25 29 28 21 18 19 20 20 21 23 24 24 25 25 25 25 26 25 25 26 26 26 25 24 23 23 23 24 24 25 26 26 27
8 6 5 5 6 7 7 8 9 9 8 7 8 8 9 10 10 10 11 11 10 8 8 8 9 11 14 14 11 11 10 6 4 8 10 9 10 12 9 6 7 10 11 14 17 16 16 21 23 19 16 18 20 21 24 28 26 21 17 18 19 20 20 20 21 22 23 24 24 24 24 23 23 23 24 24 25 25 25 25 25 25 25 25 26 27 27
6 6 6 6 6 7 8 9 10 11 10 9 9 9 9 9 10 11 11 11 9 8 8 8 10 13 14 12 10 11 10 6 4 7 9 8 9 11 8 3 6 9 13 15 16 15 15 19 20 16 14 18 20 20 24 27 24 18 15 16 16 17 18 19 19 20 20 21 23 24 24 24 24 23 22 22 23 24 26 27 28 28 27 27 28 28 28
4 6 7 6 6 8 8 9 10 11 10 10 11 11 10 9 10 10 10 9 9 9 9 9 12 15 13 8 8 10 9 6 5 7 8 8 8 10 8 3 5 9 14 17 16 14 14 17 17 14 14 18 20 20 23 26 22 15 14 15 13 13 15 17 17 17 18 18 19 20 21 23 24 24 24 23 23 24 25 26 27 27 27 28 29 30 29
5 6 8 8 8 9 9 9 9 10 10 11 11 11 10 10 10 10 9 8 8 9 10 12 15 15 10 4 6 10 10 8 7 9 9 8 8 9 7 4 4 8 14 18 16 14 14 16 16 15 15 18 18 18 22 24 20 14 14 15 13 11 12 14 15 15 16 17 16 16 16 17 18 20 22 23 23 24 24 25 25 25 26 26 26 26 26
7 8 8 8 9 9 9 9 10 11 11 11 11 11 10 10 10 10 10 9 9 11 12 12 11 7 2 0 5 10 11 10 11 12 12 12 13 13 9 4 3 5 12 17 15 13 12 14 15 16 17 18 16 17 20 21 18 13 13 14 14 11 11 13 14 14 14 14 14 14 14 14 14 15 16 17 19 20 21 22 23 24 24 25 25 24 23
7 8 8 8 10 10 9 8 9 11 11 11 11 11 11 11 10 10 11 10 10 12 13 10 8 7 5 4 6 8 9 12 14 14 12 10 8 6 3 1 1 4 10 14 13 10 11 13 16 18 17 15 14 15 18 17 14 12 11 12 13 13 11 12 14 14 13 13 12 12 12 13 13 14 14 14 14 15 16 17 19 20 21 22 23 24 25
8 8 8 9 10 9 8 8 9 10 11 11 11 11 12 12 11 11 11 11 11 12 13 12 12 11 9 8 8 9 10 11 12 11 10 8 3 4 6 4 3 4 5 9 10 8 9 13 18 19 17 13 12 15 17 15 12 11 11 10 11 12 11 11 12 12 11 11 10 10 11 12 13 13 14 14 14 14 15 15 16 17 17 18 20 21 23
10 11 11 10 10 10 10 10 11 11 11 11 12 12 13 13 12 12 12 12 11 11 12 14 15 15 12 9 10 12 12 12 11 10 9 8 6 6 11 12 10 7 3 5 7 6 8 12 16 19 17 12 10 13 15 13 10 10 11 10 10 10 10 10 10 10 9 10 9 8 8 11 12 13 14 15 14 14 15 15 15 16 17 17 17 18 19
12 12 12 12 12 11 11 12 12 12 13 13 13 12 13 13 12 12 13 13 12 12 14 15 16 15 13 11 12 13 12 13 14 14 14 13 11 8 12 14 10 6 4 4 3 4 9 13 14 16 16 11 8 10 12 11 10 10 10 9 10 10 9 10 10 10 10 11 11 7 7 10 11 12 13 14 14 14 14 15 15 15 16 16 16 17 17
13 13 13 13 13 13 12 12 13 12 11 10 9 10 12 13 12 12 12 14 14 14 14 15 15 15 14 13 14 14 13 13 13 13 13 13 11 8 10 12 9 8 6 4 3 6 10 12 12 13 14 10 7 9 10 8 8 9 9 8 9 9 8 8 10 10 10 11 12 9 8 10 11 11 12 12 12 12 13 14 14 14 14 14 15 15 16
11 12 13 14 15 14 14 13 11 10 9 10 11 12 14 15 15 14 13 14 15 16 16 16 16 16 16 14 15 15 14 12 11 11 13 14 11 6 8 9 9 8 7 7 7 8 11 11 10 10 12 9 6 7 8 7 6 8 8 7 8 8 7 7 8 8 8 9 10 9 9 9 10 10 10 10 10 10 11 12 12 12 12 12 12 13 13
11 12 14 15 15 15 14 11 9 8 10 12 15 15 15 16 16 16 14 14 15 17 17 16 15 16 16 16 16 16 16 15 14 13 14 15 14 11 8 9 10 9 8 8 9 9 10 10 9 9 8 6 5 6 7 6 5 6 6 6 7 7 6 6 6 6 6 6 7 7 7 7 8 8 8 8 8 8 8 9 10 11 10 10 11 11 11
12 12 13 13 13 13 13 12 11 11 13 13 14 14 14 13 14 15 15 15 15 17 18 18 17 17 17 16 16 16 17 18 18 18 17 17 17 15 12 12 12 13 12 10 9 9 10 11 12 10 7 5 6 6 5 4 5 6 6 5 6 6 5 6 6 5 5 5 5 4 5 5 5 5 6 6 6 6 7 7 8 9 9 9 10 10 10
12 12 13 14 14 15 15 15 15 16 16 16 15 15 14 14 14 16 19 19 17 16 16 17 18 19 20 20 20 19 18 18 19 20 21 20 19 19 18 16 14 14 15 13 10 8 10 13 14 11 7 5 6 7 7 6 6 7 6 5 5 5 5 5 5 5 5 5 4 3 3 3 3 3 4 5 5 5 6 6 7 7 8 9 9 9 9
13 14 15 16 17 17 18 18 18 18 17 18 17 16 14 15 15 15 17 19 20 18 17 16 16 18 20 21 21 21 22 22 20 20 21 21 21 21 20 18 15 15 16 15 12 10 11 14 15 14 12 9 7 7 8 8 7 7 6 5 5 5 4 3 3 4 4 4 3 3 2 2 2 3 3 4 4 4 5 6 6 7 8 8 8 9 9
Wind_Direction
94 99 103 91 71 60 46 39 33 26 25 32 39 40 31 21 26 30 14 17 34 20 2 356 351 347 342 340 340 337 338 343 345 345 345 343 345 347 348 349 346 343 340 337 334 330 326 322 320 318 313 309 307 304 302 300 297 293 287 280 276 271 265 263 264 263 259 252 246 244 241 238 239 242 245 245 238 229 224 222 227 230 224 216 210 205 204
121 125 122 112 83 64 50 41 37 35 34 38 46 43 35 41 40 15 3 22 48 26 359 348 339 336 332 329 333 338 340 343 346 346 343 342 344 345 344 344 341 338 335 333 331 329 327 325 322 319 314 309 305 300 298 297 294 291 285 278 274 273 270 266 263 262 261 257 251 246 238 235 242 247 246 246 244 235 228 226 224 222 218 218 221 219 213
162 163 168 168 102 43 39 42 40 37 35 36 42 38 32 39 31 14 10 16 23 12 355 340 331 333 334 334 338 343 344 343 343 343 341 341 344 345 343 340 337 336 333 331 330 328 326 324 321 316 312 306 302 300 299 299 296 294 293 288 279 271 269 269 267 263 261 260 257 251 242 232 234 240 242 243 242 238 234 231 229 227 221 216 219 227 227
215 190 196 200 212 320 1 37 37 32 33 30 25 24 38 53 28 6 16 19 0 352 347 340 338 341 342 340 339 341 344 343 342 342 342 341 342 342 341 338 335 334 332 330 328 325 324 323 319 315 311 306 302 300 301 302 301 298 296 297 294 286 278 273 270 267 265 264 263 261 255 240 226 222 223 227 230 231 232 230 227 229 228 223 221 226 236
257 203 203 206 217 272 340 39 33 28 28 20 20 27 47 68 53 344 7 19 358 347 344 342 342 341 340 340 337 337 341 343 344 346 342 338 339 339 338 338 337 334 331 327 325 323 322 321 317 313 309 306 302 299 298 298 297 294 289 288 289 287 285 280 277 275 272 269 267 265 265 260 243 226 221 225 229 233 236 234 231 230 230 229 225 226 240
290 185 191 200 202 358 45 56 38 42 34 6 31 60 69 91 169 291 348 12 357 350 351 348 343 340 341 338 328 330 347 352 347 346 340 336 337 337 336 339 338 332 328 324 321 320 320 319 317 314 308 302 299 297 295 294 292 292 291 289 285 281 278 275 274 277 279 276 273 269 267 268 263 247 235 237 241 244 243 240 237 237 235 231 228 228 239
289 156 188 216 83 76 92 78 42 28 29 28 62 93 106 119 340 339 356 6 355 351 359 357 346 340 338 326 312 325 15 15 352 343 337 334 336 335 336 337 333 330 329 325 322 321 320 319 317 313 307 303 300 298 298 298 295 293 292 290 288 284 281 277 272 270 270 272 274 273 270 270 269 261 246 239 242 246 245 242 237 235 234 231 230 231 237
224 173 192 196 91 103 102 74 39 357 360 30 54 135 121 69 20 3 351 355 8 359 355 358 348 338 330 313 296 343 31 16 353 342 334 332 333 332 331 330 326 328 329 327 323 320 318 318 316 313 310 306 302 297 294 292 291 290 289 286 284 282 281 280 277 270 263 262 267 270 271 269 267 267 256 240 237 240 241 239 237 236 236 234 231 231 233
247 321 74 103 131 130 81 59 39 353 9 24 328 247 138 45 8 354 343 2 24 4 347 356 348 332 320 306 299 25 23 4 346 338 332 331 333 332 331 329 328 329 330 329 325 320 318 317 316 315 315 312 308 304 297 292 289 288 287 285 283 281 278 276 276 272 265 259 259 264 270 269 263 264 262 248 236 234 233 231 230 232 236 237 236 233 230
235 262 112 138 162 141 69 67 39 346 72 88 12 286 172 35 3 345 343 11 30 2 346 356 346 327 318 315 330 8 3 349 339 336 334 334 334 332 332 332 333 334 333 331 329 325 323 322 319 317 317 314 309 304 298 294 292 289 288 288 288 287 285 282 280 276 271 265 258 255 260 265 263 259 259 256 242 232 227 223 220 225 230 233 235 233 229
279 288 286 130 118 97 56 64 31 331 100 114 109 246 204 17 356 340 345 18 35 2 351 351 341 328 325 326 333 347 345 337 335 336 335 334 334 332 333 335 335 336 335 333 331 328 326 326 323 320 318 314 308 302 298 297 294 291 290 291 291 291 291 290 286 281 278 274 266 253 246 253 261 258 256 257 250 235 225 221 219 221 225 228 231 232 233
348 305 304 30 89 119 98 94 199 332 57 106 241 234 140 360 342 341 350 5 14 358 351 344 336 334 332 325 326 334 333 330 333 335 333 333 332 332 335 337 336 337 337 335 332 331 330 330 328 325 321 316 309 305 304 302 300 298 299 298 297 294 292 289 286 282 278 277 274 261 246 244 254 259 256 253 254 243 224 218 219 219 220 223 225 228 231
334 276 283 83 97 101 65 80 164 44 54 44 269 286 28 342 338 349 351 350 356 356 349 339 332 330 328 321 320 326 330 331 333 334 333 333 331 333 336 337 337 338 337 335 334 331 330 330 327 326 326 320 313 310 308 304 302 302 302 302 299 296 291 286 282 277 275 275 275 270 260 249 248 256 257 250 251 250 230 215 214 216 216 216 218 222 226
331 306 310 100 116 48 355 1 87 86 14 315 272 5 337 326 339 350 350 349 357 356 342 333 326 319 318 317 320 326 328 329 330 332 333 331 331 334 337 338 340 339 335 335 337 335 333 332 329 327 327 322 316 313 308 303 302 302 301 301 299 296 293 287 280 275 273 272 271 271 268 257 245 248 255 250 246 250 245 222 209 210 212 210 209 216 224
315 293 312 353 104 112 345 316 224 140 338 360 52 11 330 335 342 345 348 353 359 349 331 328 327 321 322 326 328 328 326 325 327 330 332 332 333 336 339 342 343 341 335 336 340 339 338 336 331 329 329 325 319 314 309 306 305 302 301 301 299 295 292 288 281 277 275 271 268 268 267 262 251 246 253 253 244 245 251 238 211 203 206 207 207 211 217
314 307 360 22 53 104 88 325 340 53 34 19 10 331 327 337 340 344 348 352 355 341 327 330 331 329 333 334 330 329 328 328 330 330 334 338 336 337 342 345 343 339 336 337 339 340 340 337 334 333 332 327 320 315 312 311 308 305 303 301 297 293 291 286 280 276 274 269 264 262 260 259 258 254 255 258 249 241 246 245 221 200 199 202 204 207 209
342 337 22 55 72 92 81 23 36 64 66 291 310 314 311 319 337 348 344 344 346 335 331 334 332 332 336 333 333 338 336 333 336 337 340 343 339 338 345 347 342 339 336 334 336 338 338 337 337 336 333 328 321 317 317 316 312 308 307 301 295 293 290 284 278 275 273 267 260 256 254 256 259 259 258 260 256 244 242 244 230 207 197 197 198 201 205
14 320 294 15 75 116 118 82 123 125 190 245 299 306 303 319 342 344 339 338 333 327 331 335 331 332 334 333 337 342 338 336 340 340 343 345 339 339 349 349 342 340 339 337 339 340 340 340 338 335 332 329 324 321 321 320 315 310 307 302 298 299 297 286 277 276 276 272 264 258 255 257 260 258 256 259 258 248 240 242 236 216 199 195 195 197 201
341 201 197 231 232 175 192 226 183 173 195 209 228 290 302 317 333 336 334 326 317 317 326 330 328 331 333 333 336 337 335 337 339 339 345 345 339 343 353 350 342 339 340 343 344 342 341 341 339 334 333 332 331 329 327 324 320 314 310 307 306 308 306 293 278 276 276 273 271 266 260 258 258 256 254 255 256 251 242 241 238 219 200 194 193 194 198
293 252 190 194 219 194 192 225 222 195 208 208 172 261 288 295 309 324 323 316 316 323 327 326 328 330 330 333 333 332 334 336 335 342 347 341 338 348 354 347 340 338 339 344 346 343 341 341 339 336 336 336 335 335 332 329 326 320 316 315 314 315 315 301 278 272 272 268 266 266 262 257 254 252 249 248 250 249 244 244 240 219 201 196 193 193 196
273 266 234 232 242 203 177 199 229 234 223 194 125 275 279 286 298 308 313 313 315 321 321 323 328 328 329 334 332 329 334 335 333 345 346 337 338 350 350 344 343 341 340 343 345 345 343 341 339 339 339 339 339 338 335 332 331 326 322 321 320 321 321 310 282 268 265 261 259 258 258 256 253 251 249 248 251 250 246 248 246 227 207 200 195 195 197
287 353 7 329 295 288 216 195 227 244 159 138 172 265 276 289 299 303 314 318 315 317 320 324 329 327 328 333 331 328 335 335 333 343 343 334 336 346 346 344 345 343 340 340 343 347 347 342 340 342 342 342 342 340 337 335 334 331 328 327 326 325 327 322 307 288 270 258 255 253 254 255 255 256 256 255 258 258 253 253 252 234 214 206 201 199 201
320 344 352 352 296 291 293 139 171 222 208 187 211 244 263 285 297 304 318 320 315 319 323 325 330 331 330 331 329 327 330 331 334 342 340 331 332 342 347 348 345 341 341 340 341 347 350 345 344 345 345 344 343 340 338 337 337 337 334 330 329 329 329 329 325 314 293 270 262 256 252 253 255 261 265 264 264 263 257 260 265 249 221 208 204 204 206
299 301 322 349 284 290 296 162 183 204 204 218 247 256 267 288 295 302 315 317 312 315 320 322 328 330 328 328 327 326 327 330 335 338 333 328 332 339 345 348 344 341 343 341 340 346 349 348 348 347 346 347 347 344 342 340 340 341 338 333 331 332 331 329 328 322 306 281 266 256 250 251 252 261 270 269 268 264 257 262 273 261 230 213 208 210 213
278 302 311 278 266 288 300 283 265 250 221 229 245 249 258 269 276 287 298 299 301 307 312 317 325 329 328 326 327 327 327 328 331 331 327 327 333 336 340 346 345 343 344 342 343 348 349 348 351 350 345 346 347 346 344 342 340 342 342 338 335 334 332 331 328 323 314 295 271 255 252 254 250 254 263 265 266 266 269 288 298 283 254 227 212 212 217
259 269 277 272 264 259 260 272 286 281 251 237 235 245 256 244 222 253 283 289 293 302 307 311 319 324 323 322 325 327 325 323 327 327 324 327 335 335 337 344 344 340 343 345 347 349 348 348 354 354 347 345 348 348 346 344 342 343 345 344 340 338 338 337 333 329 331 330 314 284 272 266 246 236 245 269 292 284 299 342 337 358 19 16 19 24 261
255 240 247 265 267 256 241 251 282 291 270 247 230 240 252 227 188 204 259 282 291 298 304 309 314 316 317 318 322 326 325 322 326 326 321 326 338 337 334 340 340 337 341 348 350 349 348 350 356 356 350 349 354 353 349 345 343 345 348 349 346 345 347 346 342 342 345 344 338 322 295 280 254 221 212 218 307 295 276 229 176 91 52 23 21 33 24
256 246 236 248 265 279 286 285 288 289 285 276 264 262 269 262 240 243 267 285 293 298 303 308 312 313 316 318 320 322 323 322 324 325 320 324 334 334 330 336 339 335 338 348 350 349 349 351 356 357 352 351 355 356 352 348 346 346 348 351 351 351 353 351 348 350 351 347 348 352 350 346 0 39 159 144 82 27 38 46 92 104 90 57 31 37 35
252 251 236 235 259 282 291 290 288 285 280 278 279 277 274 269 267 269 272 278 288 294 299 305 311 313 315 317 317 318 319 319 320 322 321 323 328 332 335 341 341 336 338 346 348 347 349 352 357 357 351 350 356 359 355 352 350 348 348 352 354 354 356 355 352 355 357 354 357 7 16 21 23 30 51 70 63 55 42 23 26 81 87 78 58 45 44
263 261 250 238 248 263 272 280 287 291 293 289 281 276 273 268 265 267 271 278 287 292 296 303 311 313 312 314 316 314 313 314 317 318 319 322 327 334 340 344 342 338 338 343 347 348 349 351 357 356 350 350 360 3 358 355 355 352 349 352 355 356 358 359 357 358 1 1 4 13 19 22 26 31 37 40 43 50 45 33 37 66 76 72 64 54 48
246 248 249 244 244 254 264 273 279 284 288 288 280 277 279 276 269 267 269 275 282 287 293 300 308 312 310 311 311 308 308 314 318 316 317 325 331 337 343 345 342 339 338 340 346 350 349 350 356 355 348 349 1 6 1 358 360 356 351 350 353 355 359 2 2 3 5 7 11 17 19 21 24 29 32 34 35 38 43 49 57 66 67 62 56 49 42
236 235 242 245 245 249 256 266 274 273 272 273 273 272 273 274 276 276 276 278 283 287 291 298 307 311 310 306 303 305 310 317 316 314 320 329 331 335 343 344 340 339 338 340 346 352 352 352 354 352 348 349 360 8 5 1 1 1 357 353 352 353 357 2 5 5 8 14 18 20 19 20 24 27 30 32 32 30 34 44 52 56 59 58 50 40 35
255 245 242 244 249 254 257 262 273 280 285 292 298 295 285 277 277 277 273 271 272 275 284 298 305 306 305 302 300 306 316 317 312 316 330 331 325 330 342 345 342 341 340 340 346 353 355 354 349 347 349 353 360 8 8 4 1 4 6 1 357 356 357 1 5 7 9 14 19 21 22 23 27 30 33 35 35 33 33 36 38 43 50 54 47 39 39
273 267 263 262 260 262 264 267 275 284 291 298 305 305 298 290 286 283 278 274 273 275 282 294 300 302 304 302 302 310 320 316 315 329 333 324 319 326 337 343 346 345 341 341 347 352 356 355 348 345 349 355 359 4 9 7 3 6 11 8 5 3 1 1 4 8 10 13 15 18 22 26 28 31 34 38 41 42 42 40 39 39 42 43 40 38 40
280 276 272 273 268 263 273 284 290 291 294 296 295 295 296 295 291 287 276 200 250 273 280 286 295 301 299 297 301 313 317 314 325 337 326 317 319 324 328 340 351 348 343 345 350 351 353 355 352 348 352 358 359 1 7 8 5 7 12 12 9 10 10 7 6 7 10 12 14 17 22 26 28 30 34 38 41 43 44 44 43 42 42 40 38 37 39
274 270 264 262 255 244 245 255 261 268 279 289 292 293 296 295 291 289 279 238 246 266 279 288 292 294 294 296 304 311 306 308 329 331 316 313 320 319 318 339 355 350 346 346 345 343 349 356 354 352 356 1 357 355 2 6 6 9 16 17 14 14 15 14 14 13 12 13 16 20 23 27 30 32 34 37 39 40 42 43 43 42 41 40 39 39 40
267 263 258 261 262 254 250 259 273 285 293 300 302 301 296 289 286 287 284 274 266 267 275 281 282 283 287 293 298 300 299 312 338 322 308 313 321 315 314 341 356 353 354 348 336 333 347 355 353 351 357 1 353 348 355 3 6 10 19 24 21 19 18 19 21 21 20 18 19 21 23 25 28 31 34 37 38 39 41 43 44 44 43 42 43 44 43
274 263 248 245 261 271 274 280 287 291 289 287 288 288 284 281 282 281 277 273 272 270 270 277 281 280 283 290 299 300 300 309 318 304 303 314 318 312 316 351 8 1 359 347 333 330 344 353 351 349 357 360 351 343 348 358 5 11 22 29 29 26 24 25 27 27 27 27 27 26 25 25 26 28 32 36 39 41 43 45 47 48 48 46 46 47 47
275 270 260 250 256 271 277 278 278 278 281 290 294 290 284 279 278 275 272 272 274 277 278 279 274 271 276 289 302 299 293 291 290 294 303 313 315 312 320 33 52 19 3 351 339 333 340 349 351 351 354 355 349 342 345 353 360 9 22 32 37 35 29 29 31 30 29 31 33 33 32 31 30 29 30 34 38 42 44 46 48 50 50 50 49 50 51
264 262 262 258 257 260 262 267 275 283 293 300 299 297 296 291 280 274 273 272 274 278 278 271 267 269 275 294 310 300 293 292 283 279 286 295 301 304 312 1 49 23 5 357 347 337 339 349 353 352 351 353 350 345 344 348 354 6 18 25 37 46 38 31 32 34 32 31 32 34 36 36 37 37 36 36 38 40 42 45 47 48 48 49 50 51 52
267 265 264 263 263 264 266 272 282 291 297 297 296 297 300 296 287 281 279 275 271 271 269 264 267 272 279 306 317 303 295 286 273 272 279 283 275 274 287 332 32 17 1 357 352 345 348 356 354 348 348 351 351 348 346 347 353 8 17 14 22 46 53 42 34 35 38 37 34 33 35 36 36 37 38 39 40 42 44 47 49 49 49 50 50 49 50
245 254 263 267 267 270 273 276 283 288 289 289 293 295 291 286 282 277 273 268 263 264 267 266 263 260 253 358 295 288 285 276 266 263 266 267 263 264 278 324 28 1 352 355 352 344 349 358 352 343 344 348 349 350 351 351 355 10 19 11 9 24 50 54 43 34 34 38 37 34 36 37 35 34 36 37 38 40 43 45 47 48 51 52 52 51 51
240 235 242 255 263 267 267 266 272 278 279 278 283 286 284 283 282 275 270 267 261 261 265 259 225 191 182 215 251 261 268 269 267 267 272 273 263 253 269 7 21 325 340 353 352 339 343 355 352 346 346 348 347 348 351 352 356 7 15 13 9 10 26 50 51 40 32 34 34 33 35 37 37 36 37 36 35 36 38 40 41 42 44 47 48 49 49
280 264 259 258 257 259 265 267 270 273 276 278 282 282 279 278 275 268 265 265 263 263 265 258 243 239 250 262 265 268 271 271 276 292 308 309 273 175 169 184 211 242 312 347 351 334 327 340 347 350 352 351 348 349 351 352 357 4 7 10 12 9 12 31 46 43 35 31 31 33 38 41 41 41 41 38 36 36 37 39 40 39 39 40 42 43 45
291 289 287 279 265 256 258 263 266 271 278 282 280 275 273 275 277 274 271 269 263 259 259 259 261 270 280 282 277 278 278 276 279 285 282 274 258 203 183 183 186 195 234 332 348 330 308 320 338 350 354 351 349 351 351 351 357 3 3 4 8 8 8 14 24 30 30 23 17 25 44 50 50 51 51 46 42 40 39 41 43 42 40 39 40 40 41
291 291 293 293 288 278 267 259 259 266 278 283 280 274 271 271 268 266 270 271 266 258 258 261 265 271 273 270 269 270 270 273 277 266 248 247 257 236 197 189 195 222 269 313 335 303 292 303 324 342 349 350 348 346 344 346 353 359 0 2 5 7 9 11 10 13 17 14 10 22 58 60 55 56 58 52 47 42 41 41 43 43 41 41 42 41 42
295 295 293 293 295 293 286 272 261 256 258 263 269 272 273 270 260 252 256 263 263 259 257 261 266 268 265 261 260 259 257 265 278 278 271 273 277 248 209 211 233 255 262 259 263 277 284 291 309 333 343 345 337 332 334 340 350 353 354 359 2 3 8 12 9 7 8 7 7 20 49 56 54 57 59 54 50 47 44 42 43 42 42 42 42 42 42
292 295 296 296 295 294 292 287 278 265 254 253 257 261 265 267 265 257 250 251 256 258 257 256 261 266 267 262 261 263 263 262 266 271 277 285 288 262 210 211 228 242 247 250 261 275 279 277 286 315 333 336 327 324 329 334 344 349 350 351 354 360 10 14 9 4 5 5 7 15 29 40 48 56 59 57 56 55 52 50 48 46 45 46 46 44 43
287 291 295 297 295 292 288 284 279 276 273 270 267 262 259 261 263 261 253 245 248 256 261 261 260 261 260 254 251 255 262 265 265 263 263 268 272 264 234 215 221 234 241 239 239 248 259 265 274 296 318 322 306 303 313 321 329 338 343 341 340 348 2 8 4 2 4 6 8 14 21 30 40 50 56 59 60 59 58 60 58 54 54 56 55 51 49
288 289 291 291 291 292 292 289 286 288 288 282 272 262 255 255 262 267 266 257 246 245 250 255 257 258 258 253 247 246 249 253 256 256 255 260 267 268 257 239 230 229 229 228 229 234 243 254 262 270 289 306 294 277 278 299 312 314 320 327 329 330 340 350 354 358 3 7 9 16 27 34 39 46 53 59 60 59 62 66 65 61 60 62 62 59 57
290 291 292 291 291 293 294 292 290 290 291 289 283 270 253 244 248 257 264 264 259 249 244 245 246 246 246 245 243 241 241 242 243 243 243 246 251 255 254 247 233 221 220 227 236 241 245 249 249 244 246 271 276 257 245 257 283 292 293 299 309 315 322 335 346 349 353 354 354 6 35 45 44 50 62 64 62 62 65 68 68 66 65 64 65 65 63
297 296 295 293 291 290 289 288 288 288 285 285 285 278 257 239 234 240 252 263 270 271 268 263 257 252 250 248 242 235 233 235 239 241 240 237 235 239 243 243 234 223 221 224 228 233 237 235 226 220 224 239 252 249 245 250 263 271 268 266 280 299 302 298 310 325 334 337 340 358 44 62 54 63 79 81 74 73 75 73 72 72 72 70 69 70 68